Location: Central Falls
(41.8900°N, 71.3929°W)
Time: 08:41:34
(UTC+00:00)

Tiros 1 despin weight - Pass Details

Date: 03 December 2023
Orbit: 581 x 624 km, 48.2° (Epoch: 24 February)

Event Time Altitude Azimuth Distance (km) Brightness Sun altitude
Rises 23:26:58 0° 238° (WSW) 2,796 ? -23.9°
Reaches altitude 10° 23:29:15 10° 237° (WSW) 1,895 ? -24.3°
Enters shadow 23:33:02 67° 220° (SW) 632 ? -25.0°
